sat.trackr.live / text

‹ back to catalog

ONEWEB-0160

NORAD 48060 · 2021-025U

PAYLOAD ACTIVE UNKNOWN

§ Identity

Operator
Country
UK
Launch date
2021-03-25
Launch site
VOSTO
Launch vehicle
Mass (kg)
RCS (m²)

Purposes: comms

External: N2YO · Heavens-Above · Gunter

§ Orbital elements

Epoch: 2026-09-20T01:20:17.048832Z

Period
109.63 min
Inclination
87.8914°
Eccentricity
0.0002558
Mean motion
13.13469414 rev/d
Perigee alt
1,207.8 km
Apogee alt
1,211.7 km
Semi-major
7,587.9 km
B*
-7.8627e-4
RAAN
301.3483°
Arg perigee
86.8364°
Mean anomaly
273.3058°
Rev number
26,601

§ Raw data

ONEWEB-01601 48060U 21025U   26263.05575288 -.00000274  00000+0 -78627-3 0  99942 48060  87.8914 301.3483 0002558  86.8364 273.3058 13.13469414266013

JSON: /api/v1/satellites/48060 · /tle

For live sub-satellite position, see the globe view (requires WebGL).

§ Visibility from observer

Set your observer location to see the next 7 days of passes ≥ 10°. The values pass through the URL so the page stays shareable.

No JS? Fill the form by hand. The geolocation button needs JavaScript.